Weather History for Miami, FL

Change the Weather History Date:

Thursday, December 26, 2013

  Actual Average Record
Temperature  
Mean Temperature 73 °F 69 °F  
Max Temperature 75 °F 77 °F 88 °F (1941)
Min Temperature 70 °F 61 °F 32 °F (1906)
Degree Days  
Heating Degree Days 0 2  
Month to date heating degree days 0 24  
Since 1 July heating degree days 2 27  
Cooling Degree Days 8 6  
Month to date cooling degree days 267 176  
Year to date cooling degree days 4808 4548  
Growing Degree Days 22 (Base 50)    
Moisture  
Dew Point 70 °F    
Average Humidity 94    
Maximum Humidity 100    
Minimum Humidity 87    
Precipitation  
Precipitation 3.75 in 0.06 in 3.75 in (2013)
Month to date precipitation 4.30 1.75  
Year to date precipitation 70.05 61.61  
Snow  
Snow 0.00 in - - ()
Month to date snowfall 0.0  
Since 1 July snowfall 0.0  
Snow Depth 0.00 in    
Sea Level Pressure  
Sea Level Pressure 30.12 in    
Wind  
Wind Speed 4 mph (NNE)    
Max Wind Speed 14 mph    
Max Gust Speed 23 mph    
Visibility 7 miles    
Events Rain , Thunderstorm    
T = Trace of Precipitation, MM = Missing Value Source: NWS Daily Summary

Daily Weather History Graph

Daily Weather History Graph

Search for Another Location

Airport:

Trip Planner

Search our weather history database for the weather conditions in past years. The results will help you decide how hot, cold, wet, or windy it might be!

Date:

Astronomy

Dec. 26, 2013 Rise Set
Actual Time 7:05 AM EST 5:38 PM EST
Civil Twilight 6:40 AM EST 6:03 PM EST
Nautical Twilight 6:12 AM EST 6:32 PM EST
Astronomical Twilight 5:43 AM EST 7:00 PM EST
Moon 12:58 AM EST (12/26) 12:49 PM EST (12/26)
Length of Visible Light 11h 22m
Length of Day
10h 32m
Last Quarter, 38% of the Moon is Illuminated
Dec 26
Last Quarter
Jan 1
New
Jan 7
First Quarter
Jan 15
Full
Jan 24
Last Quarter

Hourly Weather History & Observations

Time (EST) Temp. Dew Point Humidity Pressure Visibility Wind Dir Wind Speed Gust Speed Precip Events Conditions
12:53 AM 71.1 °F 68.0 °F 90% 30.10 in 9.0 mi ENE 8.1 mph - 0.00 in   Overcast
1:45 AM 71.6 °F 68.0 °F 88% 30.11 in 5.0 mi SE 9.2 mph - 0.02 in Rain Rain
1:51 AM 71.6 °F 68.0 °F 88% 30.11 in 3.0 mi East 9.2 mph - 0.20 in Rain Heavy Rain
1:53 AM 71.1 °F 68.0 °F 90% 30.11 in 3.0 mi East 9.2 mph - 0.25 in Rain Heavy Rain
2:18 AM 71.6 °F 69.8 °F 94% 30.10 in 8.0 mi NE 4.6 mph - 0.09 in Rain Light Rain
2:53 AM 71.1 °F 69.1 °F 93% 30.09 in 9.0 mi Variable 3.5 mph - 0.12 in Rain Light Rain
3:28 AM 69.8 °F 69.8 °F 100% 30.09 in 3.0 mi NW 4.6 mph - 0.33 in Rain Rain
3:53 AM 70.0 °F 69.1 °F 97% 30.09 in 6.0 mi Calm Calm - 0.54 in Rain Rain
4:00 AM 71.6 °F 69.8 °F 94% 30.09 in 8.0 mi Calm Calm - 0.01 in Rain Rain
4:22 AM 71.6 °F 69.8 °F 94% 30.09 in 5.0 mi NNW 3.5 mph - 0.07 in Rain Rain
4:53 AM 71.1 °F 69.1 °F 93% 30.08 in 7.0 mi North 4.6 mph - 0.18 in Rain Rain
5:37 AM 71.6 °F 69.8 °F 94% 30.09 in 6.0 mi NW 5.8 mph - 0.20 in Rain Light Rain
5:53 AM 71.1 °F 70.0 °F 96% 30.09 in 7.0 mi NNW 3.5 mph - 0.22 in Rain Light Rain
6:35 AM 71.6 °F 69.8 °F 94% 30.11 in 6.0 mi NE 8.1 mph - 0.12 in Rain Rain
6:53 AM 71.1 °F 69.1 °F 93% 30.11 in 6.0 mi NNE 6.9 mph - 0.30 in Rain Light Rain
7:01 AM 71.6 °F 69.8 °F 94% 30.11 in 5.0 mi ENE 6.9 mph - 0.00 in Rain Light Rain
7:14 AM 71.6 °F 69.8 °F 94% 30.11 in 4.0 mi NNE 4.6 mph - 0.05 in Rain Rain
7:53 AM 71.1 °F 69.1 °F 93% 30.13 in 6.0 mi NE 6.9 mph - 0.10 in Rain Light Rain
8:42 AM 71.6 °F 69.8 °F 94% 30.15 in 2.0 mi East 5.8 mph - 0.10 in Rain Heavy Rain
8:53 AM 71.1 °F 70.0 °F 96% 30.15 in 1.0 mi Calm Calm - 0.24 in Rain Heavy Rain
9:03 AM 71.6 °F 69.8 °F 94% 30.16 in 6.0 mi NNE 8.1 mph - 0.29 in Rain Heavy Rain
9:22 AM 71.6 °F 69.8 °F 94% 30.16 in 6.0 mi Variable 4.6 mph - 0.44 in Rain , Thunderstorm Thunderstorms and Rain
9:38 AM 71.6 °F 71.6 °F 100% 30.16 in 9.0 mi North 3.5 mph - 0.46 in Rain , Thunderstorm Light Thunderstorms and Rain
9:40 AM 71.6 °F 71.6 °F 100% 30.16 in 10.0 mi Variable 4.6 mph - 0.46 in Rain Light Rain
9:53 AM 73.0 °F 70.0 °F 90% 30.17 in 10.0 mi North 4.6 mph - 0.46 in   Overcast
10:22 AM 71.6 °F 69.8 °F 94% 30.17 in 5.0 mi Variable 5.8 mph - 0.28 in Rain Heavy Rain
10:53 AM 71.1 °F 70.0 °F 96% 30.17 in 6.0 mi SW 3.5 mph - 0.49 in Rain Rain
11:17 AM 71.6 °F 69.8 °F 94% 30.16 in 2.0 mi SW 3.5 mph - 0.15 in Rain Heavy Rain
11:20 AM 71.6 °F 69.8 °F 94% 30.16 in 2.0 mi West 3.5 mph - 0.21 in Rain Heavy Rain
11:26 AM 71.6 °F 69.8 °F 94% 30.16 in 6.0 mi Variable 5.8 mph - 0.22 in Rain Light Rain
11:42 AM 71.6 °F 69.8 °F 94% 30.16 in 1.0 mi Variable 3.5 mph - 0.23 in Rain Rain
11:50 AM 71.6 °F 71.6 °F 100% 30.15 in 4.0 mi Calm Calm - 0.30 in Rain Rain
11:53 AM 72.0 °F 71.1 °F 97% 30.15 in 5.0 mi Variable 4.6 mph - 0.31 in Rain Rain
12:40 PM 71.6 °F 69.8 °F 94% 30.14 in 1.8 mi East 9.2 mph - 0.10 in Rain Heavy Rain
12:51 PM 71.6 °F 69.8 °F 94% 30.13 in 2.5 mi East 8.1 mph - 0.27 in Rain Rain
12:53 PM 72.0 °F 69.1 °F 91% 30.13 in 2.5 mi East 8.1 mph - 0.27 in Rain Rain
1:00 PM 71.6 °F 69.8 °F 94% 30.12 in 4.0 mi East 5.8 mph - 0.03 in Rain Rain
1:37 PM 73.4 °F 71.6 °F 94% 30.10 in 10.0 mi North 4.6 mph - 0.06 in   Overcast
1:53 PM 73.9 °F 71.1 °F 91% 30.10 in 10.0 mi Variable 4.6 mph - 0.06 in   Overcast
2:05 PM 71.6 °F 69.8 °F 94% 30.09 in 2.5 mi Calm Calm - 0.14 in Rain Heavy Rain
2:18 PM 73.4 °F 71.6 °F 94% 30.09 in 6.0 mi Variable 3.5 mph - 0.20 in Rain Light Rain
2:42 PM 73.4 °F 71.6 °F 94% 30.09 in 10.0 mi North 4.6 mph - 0.20 in Rain Light Rain
2:53 PM 75.0 °F 73.0 °F 94% 30.08 in 10.0 mi NNW 4.6 mph - 0.20 in Rain Light Rain
3:17 PM 73.4 °F 69.8 °F 88% 30.08 in 10.0 mi North 3.5 mph - 0.00 in Rain Light Rain
3:53 PM 73.9 °F 69.1 °F 85% 30.08 in 10.0 mi NNE 4.6 mph - 0.01 in   Mostly Cloudy
4:53 PM 73.9 °F 70.0 °F 87% 30.08 in 10.0 mi NNE 4.6 mph - 0.00 in   Mostly Cloudy
5:40 PM 73.4 °F 69.8 °F 88% 30.08 in 10.0 mi Calm Calm - 0.00 in   Mostly Cloudy
5:53 PM 73.0 °F 70.0 °F 90% 30.09 in 10.0 mi Calm Calm - 0.00 in   Mostly Cloudy
6:53 PM 73.0 °F 70.0 °F 90% 30.09 in 10.0 mi NNE 3.5 mph - N/A   Scattered Clouds
7:53 PM 73.0 °F 70.0 °F 90% 30.11 in 10.0 mi NNE 3.5 mph - N/A   Scattered Clouds
8:53 PM 73.9 °F 70.0 °F 87% 30.12 in 10.0 mi ENE 3.5 mph - N/A   Scattered Clouds
9:53 PM 73.0 °F 69.1 °F 87% 30.13 in 10.0 mi Calm Calm - N/A   Partly Cloudy
10:53 PM 71.1 °F 69.1 °F 93% 30.14 in 10.0 mi Calm Calm - N/A   Partly Cloudy
11:53 PM 71.1 °F 69.1 °F 93% 30.14 in 10.0 mi Calm Calm - N/A   Mostly Cloudy